Regional Weather Roundup
Issued by NWS Memphis, TN

Home | Current Version | Previous Version | Text Only | Print | Product List | Glossary On
Versions: 1 2 3 4 5 6 7 8 9 10 11 12 13 14 15 16 17 18 19 20 21 22 23 24 25 26 27 28 29 30 31 32 33 34 35 36 37 38 39 40 41 42 43 44 45 46 47 48 49 50
000
ASUS44 KMEG 172310
RWRMEG
MEMPHIS CWA HOURLY WEATHER ROUNDUP
NATIONAL WEATHER SERVICE MEMPHIS TN
600 PM CDT TUE OCT 17 2017

...WEST TENNESSEE...

CITY           SKY/WX    TMP DP  RH WIND       PRES   REMARKS
MEMPHIS INTL   PTCLDY    68  43  40 SE6       30.21F
NWS MEMPHIS      N/A     68 N/A N/A MISG        N/A
JACKSON        CLOUDY    64  49  57 CALM      30.23F
COVINGTON      CLEAR     66  45  45 CALM      30.22S
SOMERVILLE     CLEAR     66  52  59 CALM      30.21S
BOLIVAR        CLEAR     64  48  55 NE6       30.21F
LEXINGTON      CLEAR     64  52  63 CALM      30.23S
SELMER         CLEAR     63  52  67 CALM      30.23R
SAVANNAH       CLEAR     63  54  72 CALM      30.22S
UNION CITY     CLEAR     64  43  45 CALM      30.22F
PARIS          CLEAR     59  48  67 CALM      30.23S
HUNTINGDON     CLEAR     63  45  51 E3        30.23S


...EASTERN ARKANSAS...

CITY           SKY/WX    TMP DP  RH WIND       PRES   REMARKS
JONESBORO      CLEAR     68  42  38 SE5       30.21F
WEST MEMPHIS   CLEAR     62  48  60 CALM      30.20S
BATESVILLE     CLEAR     64  43  45 E7        30.21S HAZE
NEWPORT        HAZE      66  42  41 E3        30.22S VSB 3/4
WALNUT RIDGE   CLEAR     66  42  41 SE6       30.21F
BLYTHEVILLE    PTCLDY    67  45  45 E3        30.23S
SEARCY         CLEAR     68  44  42 E6        30.21F
STUTTGART      HAZE      70  39  32 E7        30.20S VSB<1/4
PINE BLUFF     CLEAR     71  36  27 E5        30.19F
MONTICELLO     CLEAR     71  47  42 CALM      30.19F


...NORTH MISSISSIPPI...

CITY           SKY/WX    TMP DP  RH WIND       PRES   REMARKS
TUPELO         CLEAR     69  44  40 NE6       30.21S
OXFORD         CLEAR     66  48  52 E5        30.22S
BATESVILLE     CLEAR     68  46  45 CALM      30.21S
OLIVE BRANCH   MOCLDY   N/A N/A N/A CALM      30.20F
TUNICA           N/A    N/A N/A N/A E5        30.21F
CLARKSDALE       N/A     70  48  46 CALM      30.20F
CORINTH        CLEAR     66  50  55 NE3       30.22S
GREENWOOD      CLEAR     71  48  43 E6        30.19S
COLUMBUS       CLEAR     69  50  51 NE5       30.20S
STARKVILLE     CLEAR     66  50  55 CALM      30.22S
GOLDEN TRIANGL CLEAR     69  48  47 NE6       30.21S


...SOUTHEAST MISSOURI...

CITY           SKY/WX    TMP DP  RH WIND       PRES   REMARKS
KENNETT        PTCLDY    66  39  37 MISG      30.21S HAZE
MALDEN         CLEAR     68  37  32 E3        30.23F
WEST PLAINS    CLEAR     66  34  30 SE6       30.21F
POPLAR BLUFF   CLEAR     65  39  38 S3        30.22S
CAPE GIRARDEAU CLEAR     64  41  42 SE5       30.22F


...NORTHWEST ALABAMA...

CITY           SKY/WX    TMP DP  RH WIND       PRES   REMARKS
MUSCLE SHOALS  CLEAR     66  43  43 E5        30.24S


...MIDDLE TENNESSEE...

CITY           SKY/WX    TMP DP  RH WIND       PRES   REMARKS
NASHVILLE      CLOUDY    65  40  39 N3        30.25S
CLARKSVILLE    PTCLDY    63  41  44 SE3       30.24F
COLUMBIA       CLEAR     61  45  55 E5        30.22S


...WESTERN KENTUCKY...

CITY           SKY/WX    TMP DP  RH WIND       PRES   REMARKS
PADUCAH        CLEAR     62  43  49 SE3       30.23S
FORT CAMPBELL  CLOUDY    64  42  45 CALM      30.24S


...CENTRAL ARKANSAS...

CITY           SKY/WX    TMP DP  RH WIND       PRES   REMARKS
LITTLE ROCK    CLEAR     66  41  40 S5        30.20S


SKY/WX REPORTED AS FAIR MEANS FEW OR NO CLOUDS BELOW
12 THOUSAND FEET.





USA.gov is the U.S. government's official web portal to all federal, state and local government web resources and services.